Time,TemperatureF,DewpointF,PressureIn,WindDirection,WindDirectionDegrees,WindSpeedMPH,WindSpeedGustMPH,Humidity,HourlyPrecipIn,Conditions,Clouds,dailyrainin,SoftwareType,DateUTC
2013-05-19 00:02:00,52.7,51.0,30.29,NW,305,0.0,1.0,93,0.00,,,0.00,weatherlink.com 1.10,2013-05-19 04:02:00,
2013-05-19 00:17:00,52.6,51.0,30.30,NW,304,0.0,0.0,93,0.00,,,0.00,weatherlink.com 1.10,2013-05-19 04:17:00,
2013-05-19 00:32:00,51.9,50.0,30.29,NW,305,0.0,0.0,93,0.00,,,0.00,weatherlink.com 1.10,2013-05-19 04:32:00,
2013-05-19 00:47:00,52.4,51.0,30.29,NW,311,0.0,2.0,93,0.00,,,0.00,weatherlink.com 1.10,2013-05-19 04:47:00,
2013-05-19 01:02:00,52.4,50.0,30.29,NW,321,1.0,3.0,91,0.00,,,0.00,weatherlink.com 1.10,2013-05-19 05:02:00,
2013-05-19 01:17:00,52.6,50.0,30.29,NW,315,0.0,2.0,89,0.00,,,0.00,weatherlink.com 1.10,2013-05-19 05:17:00,
2013-05-19 01:32:00,52.5,49.0,30.28,NNW,330,0.0,1.0,87,0.00,,,0.00,weatherlink.com 1.10,2013-05-19 05:32:00,
2013-05-19 01:47:00,52.4,49.0,30.28,North,351,0.0,2.0,88,0.00,,,0.00,weatherlink.com 1.10,2013-05-19 05:47:00,
2013-05-19 02:02:00,52.5,49.0,30.28,North,351,0.0,1.0,87,0.00,,,0.00,weatherlink.com 1.10,2013-05-19 06:02:00,
2013-05-19 02:17:00,51.8,48.0,30.28,North,350,0.0,0.0,87,0.00,,,0.00,weatherlink.com 1.10,2013-05-19 06:17:00,
2013-05-19 02:33:00,50.9,48.0,30.28,North,350,0.0,0.0,88,0.00,,,0.00,weatherlink.com 1.10,2013-05-19 06:33:00,
2013-05-19 02:48:00,50.7,48.0,30.28,North,350,0.0,0.0,89,0.00,,,0.00,weatherlink.com 1.10,2013-05-19 06:48:00,
2013-05-19 03:03:00,51.0,49.0,30.28,North,349,0.0,0.0,91,0.00,,,0.00,weatherlink.com 1.10,2013-05-19 07:03:00,
2013-05-19 03:18:00,50.9,49.0,30.29,North,350,0.0,0.0,92,0.00,,,0.00,weatherlink.com 1.10,2013-05-19 07:18:00,
2013-05-19 03:33:00,51.0,49.0,30.28,North,351,0.0,0.0,93,0.00,,,0.00,weatherlink.com 1.10,2013-05-19 07:33:00,
2013-05-19 03:48:00,51.0,49.0,30.28,North,349,0.0,0.0,92,0.00,,,0.00,weatherlink.com 1.10,2013-05-19 07:48:00,
2013-05-19 04:03:00,50.9,49.0,30.29,North,350,0.0,0.0,92,0.00,,,0.00,weatherlink.com 1.10,2013-05-19 08:03:00,
2013-05-19 04:18:00,50.8,49.0,30.29,North,351,0.0,0.0,93,0.00,,,0.00,weatherlink.com 1.10,2013-05-19 08:18:00,
2013-05-19 04:33:00,50.6,49.0,30.29,North,351,0.0,0.0,93,0.00,,,0.00,weatherlink.com 1.10,2013-05-19 08:33:00,
2013-05-19 04:48:00,50.6,49.0,30.29,North,349,0.0,0.0,94,0.00,,,0.00,weatherlink.com 1.10,2013-05-19 08:48:00,
2013-05-19 05:03:00,50.6,49.0,30.30,North,351,0.0,0.0,94,0.00,,,0.00,weatherlink.com 1.10,2013-05-19 09:03:00,
2013-05-19 05:18:00,51.0,49.0,30.30,North,351,0.0,0.0,94,0.00,,,0.00,weatherlink.com 1.10,2013-05-19 09:18:00,
2013-05-19 05:33:00,-999.0,-99.9,30.30,North,-999,-999.0,-999.0,-999,0.00,,,0.00,weatherlink.com 1.10,2013-05-19 09:33:00,
2013-05-19 05:48:00,-999.0,-99.9,30.30,North,-999,-999.0,-999.0,-999,0.00,,,0.00,weatherlink.com 1.10,2013-05-19 09:48:00,
2013-05-19 06:03:00,-999.0,-99.9,30.30,North,-999,-999.0,-999.0,-999,0.00,,,0.00,weatherlink.com 1.10,2013-05-19 10:03:00,
2013-05-19 06:18:00,-999.0,-99.9,30.31,North,-999,-999.0,-999.0,-999,0.00,,,0.00,weatherlink.com 1.10,2013-05-19 10:18:00,
2013-05-19 06:33:00,-999.0,-99.9,30.31,North,-999,-999.0,-999.0,-999,0.00,,,0.00,weatherlink.com 1.10,2013-05-19 10:33:00,
2013-05-19 06:48:00,-999.0,-99.9,30.31,North,-999,-999.0,-999.0,-999,0.00,,,0.00,weatherlink.com 1.10,2013-05-19 10:48:00,
2013-05-19 07:03:00,-999.0,-99.9,30.32,North,-999,-999.0,-999.0,-999,0.00,,,0.00,weatherlink.com 1.10,2013-05-19 11:03:00,
2013-05-19 07:18:00,-999.0,-99.9,30.32,North,-999,-999.0,-999.0,-999,0.00,,,0.00,weatherlink.com 1.10,2013-05-19 11:18:00,
2013-05-19 07:33:00,-999.0,-99.9,30.32,North,-999,-999.0,-999.0,-999,0.00,,,0.00,weatherlink.com 1.10,2013-05-19 11:33:00,
2013-05-19 07:49:00,57.7,54.0,30.32,SE,131,0.0,1.0,88,0.00,,,0.00,weatherlink.com 1.10,2013-05-19 11:49:00,
2013-05-19 08:03:00,58.3,55.0,30.32,SE,146,0.0,2.0,87,0.00,,,0.00,weatherlink.com 1.10,2013-05-19 12:03:00,
2013-05-19 08:18:00,57.8,53.0,30.32,SE,143,0.0,1.0,85,0.00,,,0.00,weatherlink.com 1.10,2013-05-19 12:18:00,
2013-05-19 08:33:00,56.6,53.0,30.33,SE,143,0.0,2.0,87,0.00,,,0.00,weatherlink.com 1.10,2013-05-19 12:33:00,
2013-05-19 08:49:00,57.4,54.0,30.34,SE,139,1.0,1.0,87,0.00,,,0.00,weatherlink.com 1.10,2013-05-19 12:49:00,
2013-05-19 09:03:00,57.9,54.0,30.34,SSE,155,0.0,1.0,86,0.00,,,0.00,weatherlink.com 1.10,2013-05-19 13:03:00,
2013-05-19 09:18:00,58.4,54.0,30.33,ESE,116,1.0,1.0,85,0.00,,,0.00,weatherlink.com 1.10,2013-05-19 13:18:00,
2013-05-19 09:33:00,58.8,54.0,30.34,ESE,122,0.0,2.0,84,0.00,,,0.00,weatherlink.com 1.10,2013-05-19 13:33:00,
2013-05-19 09:51:00,59.0,54.0,30.34,SSE,147,0.0,1.0,82,0.00,,,0.00,weatherlink.com 1.10,2013-05-19 13:51:00,
2013-05-19 10:04:00,59.7,54.0,30.34,SE,139,0.0,1.0,81,0.00,,,0.00,weatherlink.com 1.10,2013-05-19 14:04:00,
2013-05-19 10:19:00,61.2,55.0,30.34,SE,143,1.0,2.0,80,0.00,,,0.00,weatherlink.com 1.10,2013-05-19 14:19:00,
2013-05-19 10:34:00,59.6,53.0,30.34,SE,143,0.0,2.0,80,0.00,,,0.00,weatherlink.com 1.10,2013-05-19 14:34:00,
2013-05-19 10:51:00,59.2,54.0,30.34,SE,139,1.0,1.0,84,0.00,,,0.00,weatherlink.com 1.10,2013-05-19 14:51:00,
2013-05-19 11:04:00,60.8,55.0,30.35,ESE,117,0.0,3.0,82,0.00,,,0.00,weatherlink.com 1.10,2013-05-19 15:04:00,
2013-05-19 11:19:00,60.9,55.0,30.34,SE,131,0.0,2.0,80,0.00,,,0.00,weatherlink.com 1.10,2013-05-19 15:19:00,
2013-05-19 11:34:00,61.6,55.0,30.34,SSE,155,0.0,1.0,80,0.00,,,0.00,weatherlink.com 1.10,2013-05-19 15:34:00,
2013-05-19 11:49:00,61.6,55.0,30.34,SSE,165,0.0,2.0,78,0.00,,,0.00,weatherlink.com 1.10,2013-05-19 15:49:00,
2013-05-19 12:04:00,60.0,53.0,30.34,SSE,154,0.0,2.0,79,0.00,,,0.00,weatherlink.com 1.10,2013-05-19 16:04:00,
2013-05-19 12:19:00,58.9,54.0,30.34,SSE,150,0.0,2.0,83,0.00,,,0.00,weatherlink.com 1.10,2013-05-19 16:19:00,
2013-05-19 12:34:00,59.1,55.0,30.33,SSE,156,0.0,1.0,85,0.00,,,0.00,weatherlink.com 1.10,2013-05-19 16:34:00,
2013-05-19 12:49:00,59.1,55.0,30.33,SSE,156,0.0,1.0,86,0.00,,,0.00,weatherlink.com 1.10,2013-05-19 16:49:00,
2013-05-19 13:04:00,59.3,55.0,30.32,South,171,0.0,1.0,85,0.00,,,0.00,weatherlink.com 1.10,2013-05-19 17:04:00,
2013-05-19 13:19:00,58.9,54.0,30.32,SSE,149,0.0,1.0,85,0.00,,,0.00,weatherlink.com 1.10,2013-05-19 17:19:00,
2013-05-19 13:34:00,59.5,55.0,30.31,SE,139,0.0,1.0,85,0.00,,,0.00,weatherlink.com 1.10,2013-05-19 17:34:00,
2013-05-19 13:49:00,59.5,55.0,30.30,SE,146,0.0,1.0,85,0.00,,,0.00,weatherlink.com 1.10,2013-05-19 17:49:00,
2013-05-19 14:04:00,59.2,54.0,30.30,SE,143,0.0,1.0,84,0.00,,,0.00,weatherlink.com 1.10,2013-05-19 18:04:00,
2013-05-19 14:19:00,58.5,54.0,30.30,SE,136,0.0,1.0,86,0.00,,,0.00,weatherlink.com 1.10,2013-05-19 18:19:00,
2013-05-19 14:34:00,58.4,54.0,30.30,SE,141,0.0,1.0,86,0.00,,,0.00,weatherlink.com 1.10,2013-05-19 18:34:00,
2013-05-19 14:49:00,58.0,54.0,30.30,SE,141,0.0,1.0,87,0.00,,,0.00,weatherlink.com 1.10,2013-05-19 18:49:00,
2013-05-19 15:04:00,57.7,54.0,30.29,SE,141,0.0,1.0,87,0.00,,,0.00,weatherlink.com 1.10,2013-05-19 19:04:00,
2013-05-19 15:19:00,57.3,54.0,30.29,SSE,150,0.0,1.0,89,0.00,,,0.00,weatherlink.com 1.10,2013-05-19 19:19:00,
2013-05-19 15:34:00,56.6,54.0,30.29,SE,139,0.0,1.0,90,0.00,,,0.00,weatherlink.com 1.10,2013-05-19 19:34:00,
2013-05-19 15:49:00,55.9,53.0,30.29,SE,141,0.0,1.0,91,0.01,,,0.01,weatherlink.com 1.10,2013-05-19 19:49:00,
2013-05-19 16:04:00,55.6,53.0,30.28,SE,142,0.0,1.0,92,0.01,,,0.01,weatherlink.com 1.10,2013-05-19 20:04:00,
2013-05-19 16:19:00,55.5,54.0,30.29,SE,142,0.0,1.0,93,0.02,,,0.02,weatherlink.com 1.10,2013-05-19 20:19:00,
2013-05-19 16:34:00,55.3,53.0,30.29,SE,142,0.0,1.0,93,0.03,,,0.03,weatherlink.com 1.10,2013-05-19 20:34:00,
2013-05-19 16:49:00,55.2,54.0,30.28,SE,142,0.0,1.0,94,0.04,,,0.05,weatherlink.com 1.10,2013-05-19 20:49:00,
2013-05-19 17:04:00,55.1,54.0,30.27,SSE,156,0.0,1.0,94,0.05,,,0.06,weatherlink.com 1.10,2013-05-19 21:04:00,
2013-05-19 17:19:00,54.7,53.0,30.28,SE,134,1.0,1.0,94,0.04,,,0.06,weatherlink.com 1.10,2013-05-19 21:19:00,
2013-05-19 17:34:00,54.7,53.0,30.27,SE,141,1.0,2.0,95,0.04,,,0.07,weatherlink.com 1.10,2013-05-19 21:34:00,
2013-05-19 17:49:00,54.7,53.0,30.27,SSE,162,0.0,1.0,95,0.03,,,0.08,weatherlink.com 1.10,2013-05-19 21:49:00,
2013-05-19 18:04:00,54.6,53.0,30.26,SSE,153,0.0,1.0,95,0.03,,,0.09,weatherlink.com 1.10,2013-05-19 22:04:00,
2013-05-19 18:19:00,54.7,54.0,30.26,SE,143,0.0,1.0,96,0.03,,,0.09,weatherlink.com 1.10,2013-05-19 22:19:00,
2013-05-19 18:34:00,54.6,54.0,30.26,SSE,153,0.0,3.0,96,0.02,,,0.09,weatherlink.com 1.10,2013-05-19 22:34:00,
2013-05-19 18:49:00,54.4,53.0,30.26,SSE,162,0.0,2.0,96,0.01,,,0.09,weatherlink.com 1.10,2013-05-19 22:49:00,
2013-05-19 19:04:00,54.2,53.0,30.25,SE,141,0.0,1.0,96,0.00,,,0.09,weatherlink.com 1.10,2013-05-19 23:04:00,
2013-05-19 19:19:00,54.1,53.0,30.25,SSE,153,1.0,2.0,96,0.00,,,0.09,weatherlink.com 1.10,2013-05-19 23:19:00,
2013-05-19 19:34:00,54.1,53.0,30.25,SSE,153,0.0,1.0,96,0.00,,,0.09,weatherlink.com 1.10,2013-05-19 23:34:00,
2013-05-19 19:49:00,54.0,53.0,30.25,SSE,156,1.0,1.0,96,0.02,,,0.11,weatherlink.com 1.10,2013-05-19 23:49:00,
2013-05-19 20:04:00,54.0,53.0,30.25,SE,146,0.0,2.0,97,0.03,,,0.12,weatherlink.com 1.10,2013-05-20 00:04:00,
2013-05-19 20:19:00,54.1,53.0,30.25,SE,141,0.0,2.0,97,0.04,,,0.13,weatherlink.com 1.10,2013-05-20 00:19:00,
2013-05-19 20:34:00,54.1,53.0,30.24,SE,146,1.0,2.0,97,0.05,,,0.14,weatherlink.com 1.10,2013-05-20 00:34:00,
2013-05-19 20:49:00,54.1,53.0,30.24,SSE,153,1.0,2.0,97,0.04,,,0.15,weatherlink.com 1.10,2013-05-20 00:49:00,
2013-05-19 21:04:00,54.0,53.0,30.24,SE,143,1.0,3.0,97,0.03,,,0.15,weatherlink.com 1.10,2013-05-20 01:04:00,
2013-05-19 21:19:00,54.1,53.0,30.23,SSE,148,0.0,5.0,97,0.02,,,0.15,weatherlink.com 1.10,2013-05-20 01:19:00,
2013-05-19 21:34:00,54.1,53.0,30.23,South,176,1.0,4.0,97,0.02,,,0.16,weatherlink.com 1.10,2013-05-20 01:34:00,
2013-05-19 21:49:00,54.1,53.0,30.23,SSE,149,1.0,4.0,97,0.01,,,0.16,weatherlink.com 1.10,2013-05-20 01:49:00,
2013-05-19 22:04:00,54.1,53.0,30.23,SSE,153,1.0,5.0,97,0.01,,,0.16,weatherlink.com 1.10,2013-05-20 02:04:00,
2013-05-19 22:19:00,54.1,53.0,30.22,SE,129,0.0,2.0,97,0.01,,,0.16,weatherlink.com 1.10,2013-05-20 02:19:00,
2013-05-19 22:34:00,54.1,53.0,30.21,SE,146,0.0,4.0,97,0.00,,,0.16,weatherlink.com 1.10,2013-05-20 02:34:00,
2013-05-19 22:49:00,54.4,54.0,30.21,South,184,2.0,4.0,98,0.00,,,0.16,weatherlink.com 1.10,2013-05-20 02:49:00,
2013-05-19 23:04:00,54.3,54.0,30.20,SSW,210,1.0,3.0,97,0.01,,,0.17,weatherlink.com 1.10,2013-05-20 03:04:00,
2013-05-19 23:19:00,54.5,54.0,30.20,SE,132,1.0,3.0,98,0.02,,,0.18,weatherlink.com 1.10,2013-05-20 03:19:00,
2013-05-19 23:34:00,54.9,54.0,30.20,SSE,155,3.0,5.0,98,0.02,,,0.18,weatherlink.com 1.10,2013-05-20 03:34:00,
2013-05-19 23:50:00,54.7,54.0,30.20,SSE,150,2.0,4.0,98,0.02,,,0.18,weatherlink.com 1.10,2013-05-20 03:50:00,